Location: ??????
(55.7500°N, 37.5833°E)
Time: 00:53:02
(UTC+00:00)

Daily predictions for brighter satellites

Satellite Brightness Start Highest point End
(mag) Time Altitude Azimuth Time Altitude Azimuth Time Altitude Azimuth
Cosmos 2278 Rocket 4.1 00:06:04 26° NE 00:06:04 26° NE 00:10:02 10° E
H-2A R/B 4.3 00:05:02 10° NNE 00:07:06 20° NE 00:07:06 20° NE
Cosmos 2333 Rocket 3.8 00:15:27 31° ENE 00:15:27 31° ENE 00:18:52 10° NE
CENTAUR R/B 3.5 00:18:07 48° N 00:18:07 48° N 00:25:26 10° ENE
COSMOS 2455 4.2 00:18:48 33° E 00:18:48 33° E 00:23:03 10° NE
ACS3 Solar Sail 2.9 00:14:04 10° NNE 00:19:36 37° E 00:19:36 37° E
ADEOS II 4.0 00:16:12 10° NNE 00:18:18 24° NNE 00:18:18 24° NNE
Cosmos 2369 Rocket 4.4 00:21:34 18° N 00:21:41 18° N 00:25:26 10° NE
USA 234 4.4 00:20:54 10° ESE 00:24:10 32° SE 00:24:10 32° SE
Resurs 1-4 Rocket 4.1 00:24:20 10° NNE 00:26:10 22° NNE 00:26:10 22° NNE
Cosmos 2360 Rocket 3.4 00:35:36 39° E 00:35:36 39° E 00:39:51 10° NE
Cosmos 2322 Rocket 3.4 00:35:54 40° ENE 00:35:54 40° ENE 00:40:00 10° NE
SL-16 R/B 3.3 00:42:20 41° NE 00:42:20 41° NE 00:46:00 10° NE
Cosmos 1943 Rocket 3.4 00:43:12 37° NE 00:43:23 37° NE 00:48:29 10° ESE
ADEOS Rocket 3.5 00:44:25 10° NNE 00:50:46 63° ESE 00:51:50 56° SE
NOSS 3-2 (C) 4.0 00:56:08 51° NNE 00:56:08 51° NNE 01:01:55 10° NE
Cosmos 1697 Rocket 4.4 00:59:30 22° N 00:59:30 22° N 01:02:31 10° NNE
CZ-2C R/B 4.0 00:56:15 10° NNE 01:00:42 32° E 01:03:07 21° SE
SeaSat 1 4.4 01:00:53 10° NNE 01:02:54 21° N 01:02:54 21° N
Cosmos 2219 Rocket 2.9 01:13:22 46° SE 01:14:11 50° ESE 01:19:40 10° NE
SJ 16-02 4.0 01:13:40 12° N 01:15:39 15° NE 01:18:13 10° ENE
USA 59 Rocket 2.5 01:19:17 11° ESE 01:19:17 11° ESE 01:19:39 10° ESE
NOSS 3-2 (A) 4.1 01:21:44 43° NNW 01:22:28 44° N 01:29:27 10° ENE
ALOS 4.5 01:18:46 10° N 01:19:42 16° N 01:19:42 16° N
Cosmos 1707 Rocket 4.4 01:28:35 49° E 01:28:35 49° E 01:32:42 10° NNE
USA 267 3.6 01:24:41 10° ENE 01:31:06 56° SSE 01:32:57 43° SSW
Meteor 2-19 Rocket 4.2 01:33:09 77° WSW 01:33:26 80° WNW 01:39:36 10° N
Cosmos 1727 Rocket 4.5 01:27:55 10° S 01:33:58 59° E 01:40:06 10° NNE
CZ-2D R/B 3.6 01:30:39 10° N 01:33:08 25° NNW 01:33:08 25° NNW
Cosmos 407 Rocket 4.2 01:34:28 29° N 01:36:48 50° NE 01:41:46 10° SE
Cosmos 1023 Rocket 4.4 01:38:51 79° SE 01:38:51 79° SE 01:43:37 10° SSE
Cosmos 2333 4.1 01:39:27 71° SSW 01:40:07 87° ESE 01:45:57 10° NE
Cosmos 967 Rocket 4.3 01:40:01 68° WSW 01:40:51 80° NW 01:47:21 10° NE
Cosmos 2150 Rocket 4.0 01:42:52 65° S 01:43:35 78° ESE 01:48:54 10° NNE
Cosmos 1980 Rocket 3.6 01:46:11 24° NNW 01:46:11 24° NNW 01:50:27 10° NNE
USA 238 DEB 3.6 01:45:38 57° WNW 01:46:42 66° NNW 01:53:49 10° NE
USA 238 3.6 01:45:44 57° WNW 01:46:48 66° NNW 01:53:54 10° NE
COSMO-SKYMED 1 4.2 01:44:55 10° SE 01:48:35 32° ENE 01:52:17 10° N
Cosmos 1269 Rocket 3.8 01:48:36 79° WSW 01:48:38 79° WSW 01:53:55 10° SSE
H-2A R/B 2.7 01:44:08 10° N 01:47:35 40° NNW 01:47:35 40° NNW
Cosmos 2228 Rocket 3.4 01:48:33 44° SSE 01:49:44 63° E 01:54:07 10° NNE
Cosmos 2278 Rocket 2.2 01:47:56 38° NNW 01:50:14 77° NE 01:55:54 10° SE
Cosmos 2173 Rocket 3.9 01:44:52 10° N 01:51:01 84° ENE 01:57:07 10° SSE
Cosmos 2333 Rocket 2.3 01:57:29 54° WNW 01:57:44 54° NW 02:03:25 10° NNE
Cosmos 1153 Rocket 4.4 01:53:16 10° NNW 01:59:20 60° W 02:05:25 10° S
ADEOS II 3.3 01:56:07 10° N 01:59:06 27° NNW 01:59:06 27° NNW
Lacrosse 4 Rocket 3.6 02:01:49 15° N 02:02:10 15° N 02:04:33 10° NE
ACS3 Solar Sail 1.8 01:57:02 10° N 02:02:51 55° WNW 02:03:45 50° W
COSMOS 2455 2.8 02:01:57 54° W 02:03:14 68° NW 02:09:18 10° NE
Cosmos 2369 Rocket 3.8 02:03:21 13° NNW 02:07:33 30° NNE 02:12:31 10° E
Cosmos 2298 Rocket 3.9 02:06:27 50° SW 02:07:51 77° WNW 02:13:14 10° NNE
Resurs 1-4 Rocket 3.7 02:04:48 10° N 02:07:11 20° NNW 02:07:11 20° NNW
CENTAUR R/B 3.5 02:05:13 28° NW 02:09:24 56° NNE 02:18:08 10° E
Cosmos 1939 Rocket 3.2 02:06:35 10° NNE 02:10:25 61° ESE 02:13:56 12° S
USA 234 3.9 02:05:24 10° SSE 02:11:12 33° SW 02:11:31 33° SW
Lacrosse 5 rocket 1.2 02:13:17 63° ENE 02:13:17 63° ENE 02:16:11 10° ENE
Cosmos 2123 Rocket 4.4 02:09:24 10° S 02:15:32 64° E 02:21:39 10° NNE
Cosmos 2360 Rocket 2.4 02:17:23 45° W 02:18:29 51° NW 02:24:02 10° NNE
BlueWalker 3 3.9 02:20:01 17° S 02:20:01 17° S 02:21:21 10° SSE
Cosmos 2322 Rocket 2.5 02:17:43 43° WNW 02:18:40 47° NW 02:24:12 10° NNE
Meteor 2-5 Rocket 4.4 02:14:35 10° S 02:20:22 58° E 02:26:05 10° NNE
Cosmos 1782 Rocket 4.0 02:17:24 10° N 02:21:48 61° ENE 02:26:08 10° SSE
Cosmos 2016 Rocket 4.0 02:15:49 10° N 02:22:15 86° ENE 02:28:38 10° S
SL-16 R/B 2.9 02:24:11 32° NW 02:24:56 33° NW 02:30:05 10° NNE
Cosmos 44 Rocket 3.9 02:26:24 38° WSW 02:26:24 38° WSW 02:31:07 10° S
Cosmos 1943 Rocket 2.1 02:24:45 30° NW 02:27:28 64° WSW 02:32:54 10° SSE
Helios 1A Rocket 2.3 02:24:40 10° SSE 02:28:05 87° ENE 02:29:00 46° NNW
NOSS 2-3 (C) 4.2 02:27:53 33° NNW 02:28:16 34° NNW 02:32:27 10° NE
Meteor 2-14 Rocket 4.3 02:23:53 10° SSW 02:29:58 70° WNW 02:36:04 10° N
Cosmos 1461 3.6 02:30:30 33° NNW 02:30:31 33° NNW 02:34:13 10° NE
NOSS 2-1 (C) 4.1 02:29:04 23° S 02:30:34 36° SE 02:33:22 10° ENE
ARGOS 3.2 02:26:04 10° N 02:31:22 55° WNW 02:34:51 21° SW
Cosmos 2278 4.5 02:32:13 30° WNW 02:33:18 33° NW 02:38:26 10° NNE
PAYLOAD A 4.1 02:28:13 10° NNE 02:33:36 67° WNW 02:38:54 10° SSW
Timation 2 Rocket 4.2 02:29:48 24° NW 02:33:47 52° WSW 02:40:00 10° S
Cosmos 1125 Rocket 4.4 02:34:08 29° NW 02:34:28 29° NW 02:39:05 10° NNE
NOSS 2-1 (D) 3.8 02:33:15 25° S 02:34:40 42° SE 02:37:32 10° ENE
H-2A R/B 3.2 02:31:15 10° N 02:35:04 59° WNW 02:35:56 45° WSW
ADEOS Rocket 3.7 02:30:20 10° N 02:36:05 38° WNW 02:38:45 28° W
H-2A R/B 4.4 02:33:52 10° NNW 02:33:55 10° NNW 02:33:55 10° NNW
Cosmos 1140 Rocket 3.8 02:35:56 37° W 02:36:54 40° WSW 02:41:38 10° S
Okean 1-7 3.1 02:36:46 42° WSW 02:37:40 50° WNW 02:41:49 10° N
Cosmos 1908 Rocket 3.6 02:33:17 10° NNW 02:37:40 57° W 02:42:00 10° S
Cosmos 1862 Rocket 3.8 02:38:05 41° WNW 02:38:08 42° WNW 02:42:14 10° N
CZ-2C R/B 2.6 02:34:10 10° N 02:38:58 51° WNW 02:42:20 20° SW
SeaSat 1 4.4 02:38:38 10° NNE 02:41:19 15° NNW 02:42:31 14° NNW
Cosmos 1809 Rocket 4.4 02:35:52 10° SSW 02:41:52 58° WNW 02:47:53 10° N
Cosmos 2061 Rocket 4.0 02:35:43 10° N 02:41:59 82° ENE 02:48:11 10° SSE
Cosmos 1300 Rocket 3.4 02:38:12 10° NNW 02:42:35 82° W 02:46:54 10° S
NOSS 3-1 (C) 3.3 02:40:03 15° SW 02:44:09 69° SE 02:50:12 10° NE
Cosmos 2100 Rocket 4.2 02:39:36 10° NNW 02:45:24 45° W 02:51:11 10° SSW
NOSS 3-2 (C) 4.3 02:43:32 23° NW 02:47:07 45° N 02:54:18 10° ENE
Iridium 4 Rocket 2.9 02:45:53 10° N 02:50:20 70° W 02:54:31 10° S
Cosmos 1812 4.1 02:48:34 10° N 02:51:10 28° ENE 02:53:45 10° SE
SJ 16-02 1.7 02:50:24 10° NNW 02:54:42 62° ENE 02:58:57 10° SE
Cosmos 1190 Rocket 4.0 02:51:24 10° NNW 02:56:44 90° WSW 03:02:00 10° SSE
Cosmos 676 Rocket 4.4 02:52:22 10° NNW 02:57:39 65° ENE 03:02:51 10° SE
IRS-1D 3.4 02:52:55 10° NNE 02:57:57 88° WNW 03:02:54 10° SSW
Cosmos 2219 Rocket 2.5 02:55:06 24° WSW 02:58:15 45° NW 03:03:44 10° NNE
SL-24 R/B - RUBIN 2 3.9 02:58:33 21° WSW 03:02:01 64° NW 03:06:45 10° NE
NOSS 0 Rocket 4.2 02:56:04 10° SSW 03:02:11 71° ESE 03:08:20 10° NE
NOSS 2-2 (C) 4.2 03:00:58 20° NNW 03:02:50 36° NNE 03:06:38 10° E
Cosmos 1459 Rocket 4.5 03:00:57 10° NNW 03:06:42 37° W 03:12:26 10° SSW
USA 59 Rocket -1.0 03:05:03 21° SW 03:07:00 85° SE 03:09:56 10° NE
COSMOS 2428 2.6 03:01:56 10° SW 03:07:39 78° NW 03:13:23 10° NNE
Cosmos 371 Rocket 3.4 03:06:33 10° NNW 03:11:26 80° ENE 03:16:17 10° SSE
SL-08 RB Rocket 4.4 03:07:51 10° N 03:11:56 32° WNW 03:15:42 11° WSW
Cosmos 1869 3.0 03:08:25 10° N 03:11:57 83° E 03:15:26 10° SSE
FengYun 1-2 T 4.2 03:07:04 10° NNE 03:12:33 61° WNW 03:18:02 10° SW
NOSS 2-2 (D) 4.4 03:11:13 17° NNW 03:13:12 30° NNE 03:16:44 10° E
CZ-2D R/B 4.0 03:12:42 10° NNW 03:14:07 11° NW 03:14:23 11° NW
NOSS 3-2 (A) 4.3 03:09:05 16° NW 03:14:25 56° NNE 03:22:19 10° E
USA 267 3.3 03:07:53 10° ENE 03:14:28 88° NNW 03:20:18 14° W
Cosmos 1954 Rocket 3.9 03:09:40 10° NNW 03:14:55 81° WSW 03:20:05 10° SSE
Cosmos 2322 3.7 03:09:34 10° SW 03:15:13 64° NW 03:20:54 10° NNE
Cosmos 1725 Rocket 4.3 03:11:09 10° NNW 03:17:04 43° W 03:22:58 10° SSW
Cosmos 407 Rocket 4.0 03:14:38 13° NW 03:18:35 35° WSW 03:23:09 10° SSW
PKM 4.3 03:14:49 17° W 03:19:59 79° SSW 03:23:05 10° ESE
COSMO-SKYMED 1 2.9 03:20:01 10° SSW 03:23:52 38° W 03:27:47 10° NNW
SKYMED 2 4.3 03:20:35 10° SSW 03:24:27 31° W 03:28:21 10° NNW
DMSP B5D1-3 4.5 03:20:10 10° S 03:25:16 73° WSW 03:30:25 10° NNW
Cosmos 1484 Rocket 2.7 03:23:32 10° NNE 03:27:06 76° ESE 03:30:40 10° S
H-2A R/B 3.6 03:24:50 10° NNW 03:27:21 14° NW 03:28:04 14° NW
Cosmos 1980 3.9 03:21:54 10° SSW 03:27:33 80° ESE 03:33:15 10° NE
NOSS 3-1 (A) 3.6 03:23:25 10° SSW 03:28:15 64° SE 03:34:17 10° NE
Cosmos 2228 Rocket 4.3 03:26:01 15° W 03:28:16 22° WNW 03:31:44 10° N
Cosmos 2233 Rocket 4.2 03:22:23 10° NNW 03:28:28 50° W 03:34:28 10° SSW
Cosmos 1464 Rocket 4.4 03:23:56 10° N 03:30:09 68° ENE 03:36:15 10° SSE
Cosmos 1656 Rocket 3.7 03:25:08 10° NW 03:30:50 77° WSW 03:36:30 10° SSE
Cosmos 1980 Rocket 4.0 03:28:12 10° NW 03:31:55 17° N 03:35:36 10° NE
Cosmos 2297 4.0 03:27:08 10° NNW 03:32:49 71° NE 03:38:27 10° SE
Cosmos 2278 Rocket 3.2 03:29:48 13° NW 03:33:48 26° WSW 03:38:23 10° SSW
NOSS 2-1 (E) 2.6 03:33:17 10° WSW 03:36:37 74° NW 03:39:39 10° NE
Cosmos 2251 Rocket 3.9 03:32:09 10° NW 03:37:12 43° WSW 03:42:14 10° S
USA 238 DEB 4.3 03:33:04 14° WNW 03:38:41 46° N 03:45:48 10° ENE
USA 238 4.3 03:33:10 14° WNW 03:38:47 46° N 03:45:54 10° ENE
Cosmos 1400 Rocket 3.0 03:35:06 10° N 03:38:52 66° ENE 03:42:35 10° SSE
Cosmos 304 Rocket 3.8 03:35:10 10° NNW 03:39:54 63° WSW 03:44:36 10° SSE
Lacrosse 4 Rocket 3.1 03:38:00 10° NNW 03:41:22 24° NNE 03:44:39 10° E
Cosmos 1703 Rocket 4.3 03:39:02 10° SW 03:42:56 31° WNW 03:46:54 10° N
Cosmos 2333 Rocket 3.6 03:39:30 13° WNW 03:43:19 23° NNW 03:47:51 10° NNE
Cosmos 2237 Rocket 2.2 03:38:09 10° SSW 03:43:51 88° WNW 03:49:33 10° NE
Cosmos 1939 Rocket 4.1 03:41:12 10° N 03:44:03 20° WNW 03:46:54 10° WSW
ACS3 Solar Sail 3.2 03:41:13 10° N 03:44:41 16° NW 03:47:53 11° WNW
IGS 5A 3.5 03:44:06 10° NNE 03:48:09 83° ESE 03:52:10 10° SSW
Cosmos 2292 Rocket 4.3 03:44:56 10° SW 03:49:17 42° WNW 03:54:50 10° N
Sich 1 Rocket 4.2 03:45:11 10° N 03:49:44 63° ENE 03:54:14 10° SSE
Lacrosse 5 rocket 0.8 03:46:58 13° W 03:49:58 71° N 03:53:18 10° E
COSMOS 2455 3.8 03:45:06 11° WNW 03:50:09 32° NNW 03:55:34 10° NE
NOSS 2-2 (E) 4.1 03:48:05 10° NW 03:51:14 39° NNE 03:55:09 10° E
Cosmos 2369 Rocket 2.3 03:46:33 10° NW 03:52:16 90° WSW 03:57:58 10° SSE
Cosmos 2151 Rocket 3.6 03:48:27 10° NNW 03:52:59 88° W 03:57:30 10° S
Meteor 1-24 Rocket 4.3 03:47:54 10° SW 03:53:07 36° WNW 03:58:13 10° N
CZ-4 R/B 4.4 03:49:56 10° N 03:54:29 38° WNW 03:58:57 10° SW
Cosmos 1072 Rocket 4.4 03:52:22 10° NNW 03:58:30 79° W 04:04:37 10° S
Cosmos 2242 Rocket 3.5 03:54:30 10° SSW 03:58:52 73° WNW 04:03:18 10° N
Cosmos 2084 4.0 03:55:55 10° NW 03:59:53 45° NNE 04:03:48 10° E
Cosmos 968 Rocket 3.5 03:55:16 10° NNW 04:00:32 85° WSW 04:05:47 10° SSE
CENTAUR R/B 3.3 03:52:53 10° NW 04:00:45 83° SW 04:10:02 10° SE
Helios 1A Rocket 4.5 04:00:30 10° WSW 04:01:20 11° W 04:02:10 10° WNW
Cosmos 1624 Rocket 4.3 03:56:36 10° SSW 04:01:45 73° ESE 04:06:56 10° NNE
Cosmos 2360 Rocket 3.6 03:59:27 10° WNW 04:03:46 22° NNW 04:08:07 10° NNE
Meteor 2-5 Rocket 4.4 03:58:45 10° SW 04:04:05 34° WNW 04:09:24 10° N
Cosmos 2322 Rocket 3.6 03:59:51 10° WNW 04:04:06 21° NNW 04:08:23 10° NNE
Gbstr 26 Del rocket 4.3 04:00:54 10° WSW 04:06:07 58° S 04:12:34 10° E
Cosmos 1420 Rocket 4.0 04:02:19 10° SW 04:07:36 72° WNW 04:12:56 10° NNE
ARIANE 5 R/B 3.2 04:03:13 10° NNE 04:08:13 62° ESE 04:13:15 10° S
Cosmos 1461 4.4 04:05:14 10° NW 04:08:23 22° N 04:11:31 10° NE
Cosmos 1943 Rocket 3.8 04:07:24 10° WNW 04:10:08 14° W 04:12:51 10° SW
SL-16 R/B 3.8 04:06:54 10° NW 04:10:47 18° N 04:14:40 10° NNE
Cosmos 1674 Rocket 3.8 04:07:47 10° S 04:12:12 78° E 04:16:40 10° NNE
